Location: Tierra del Sol
(32.6128°N, 116.3319°W)
Time: 22:27:23
(UTC-07:00)

Envisat - Pass Details

Date: 15 October 2017
Orbit: 764 x 766 km, 98.2° (Epoch: 18 October)

Event Time Altitude Azimuth Distance (km) Brightness Sun altitude
Exits shadow 20:03:28 17° 18° (NNE) 1,852 4.8 -24.2°
Drops below altitude 10° 20:04:49 10° 9° (N) 2,305 5.4 -24.5°
Sets 20:07:19 0° 360° (N) 3,234 6.3 -25.0°
